Regional Weather Roundup
Issued by NWS

Home | Current Version | Previous Version | Text Only | Print | Product List | Glossary On
Versions: 1 2 3 4 5 6 7 8 9 10 11 12 13 14 15 16 17 18 19 20 21 22 23 24 25 26 27 28 29 30 31 32 33 34 35 36 37 38 39 40 41 42 43 44 45
000
ASUS46 KSEW 291710
RWRWA

WASHINGTON REGIONAL WEATHER ROUNDUP
NATIONAL WEATHER SERVICE SEATTLE WA
900 AM PST THU JAN 29 2015

NOTE:"FAIR" INDICATES FEW OR NO CLOUDS BELOW 12,000 FEET WITH NO
SIGNIFICANT WEATHER AND/OR OBSTRUCTIONS TO VISIBILITY.

WAZ505-507>509-291800-
SEATTLE, TACOMA, EVERETT, AND VICINITY

CITY           SKY/WX    TMP DP  RH WIND       PRES   REMARKS
EVERETT        MOSUNNY   40  37  89 N3        30.35S
BOEING FIELD   MOSUNNY   46  39  76 CALM      30.36S
RENTON         MOSUNNY   43  39  86 CALM      30.35F
SEATAC AIRPORT MOSUNNY   43  38  82 N10       30.35S
JBLM-MCCHORD   CLOUDY    43  43 100 NE6       30.34F
PUYALLUP       DRIZZLE   41  41 100 CALM      30.34S
BREMERTON      MOSUNNY   39  39 100 CALM      30.37F
JBLM-FT LEWIS  CLOUDY    44  43  99 NW5       30.34S
TACOMA NARROWS PTSUNNY   43  40  89 CALM      30.34F
$$

WAZ001-503-506-510-514-515-291800-
NORTH INTERIOR

CITY           SKY/WX    TMP DP  RH WIND       PRES   REMARKS
BELLINGHAM     CLOUDY    39  34  82 N6        30.37S
FRIDAY HARBOR  PTCLDY    44  39  82 VRB6      30.38F
EASTSOUND      MOCLDY    45  36  70 CALM      30.37S
PORT ANGELES   CLOUDY    44  41  89 SE7       30.37S
NAS WHIDBEY    MOCLDY    39  37  92 CALM      30.38S
ARLINGTON      SUNNY     34  30  86 NW3       30.37F
BURLINGTON     CLEAR     37  37 100 NW7       30.39R
$$

WAZ020-022-039-040-504-511-512-291800-
SOUTHWEST INTERIOR

CITY           SKY/WX    TMP DP  RH WIND       PRES   REMARKS
SHELTON        MOSUNNY   35  34  96 CALM      30.33F FOG
OLYMPIA        CLOUDY    42  41  96 NE3       30.35F FOG
CHEHALIS       CLOUDY    43  43 100 NE5       30.35S FOG
KELSO          CLOUDY    43  39  87 CALM      30.37S
VANCOUVER      CLOUDY    44  43  96 CALM      30.33S FOG
SCAPPOOSE, OR  FOG       44  43  96 CALM      30.32S VSB 1
PORTLAND, OR   FOG       43  43 100 NW3       30.34R VSB 1/4
$$

WAZ021-516-517-291800-
WASHINGTON COAST

CITY           SKY/WX    TMP DP  RH WIND       PRES   REMARKS
FORKS          CLEAR     41  40  96 NE3       30.33R
HOQUIAM        CLEAR     44  42  93 E10       30.32R FOG
ASTORIA, OR    SUNNY     44  42  93 CALM      30.29S FOG
$$

WAZ019-023-024-040-518-519-291800-
CASCADE MOUNTAINS AND COLUMBIA GORGE

CITY           SKY/WX    TMP DP  RH WIND       PRES   REMARKS
TROUTDALE, OR  MOSUNNY   44  35  70 E23       30.31S
THE DALLES, OR CLOUDY    41  36  82 E8        30.49S
$$

WAZ026-027-041>044-520-521-291800-
EAST SLOPES

CITY           SKY/WX    TMP DP  RH WIND       PRES   REMARKS
OMAK           CLOUDY    32  29  88 N6        30.49S
WENATCHEE      CLOUDY    34  30  85 W5        30.49R
ELLENSBURG     CLOUDY    33  29  85 E3        30.44S FOG
YAKIMA         CLOUDY    36  33  89 CALM      30.48S FOG
$$

WAZ028-034-035-291800-
COLUMBIA BASIN

CITY           SKY/WX    TMP DP  RH WIND       PRES   REMARKS
EPHRATA        CLOUDY    37  33  85 N7        30.46R
MOSES LAKE     CLOUDY    36  33  89 NE6       30.47S
PASCO          CLOUDY    38  36  92 W3        30.50S
HERMISTON, OR  FOG       37  36  96 CALM      30.48S VSB 1
$$

WAZ036>038-291800-
NORTHEAST WASHINGTON

CITY           SKY/WX    TMP DP  RH WIND       PRES   REMARKS
SPOKANE GEIGER FOG       31  31 100 N7        30.42S VSB 1/8
SPOKANE FELTS  CLOUDY    34  31  88 CALM      30.45S
FAIRCHILD AFB  FOG       30  30 100 NE7       30.41S VSB 0
COEURDALENE,ID CLOUDY    34  28  80 NE10      30.43R WCI  26
DEER PARK      MOSUNNY   27  27 100 CALM      30.44S
$$

WAZ029>033-291800-
SOUTHEAST WASHINGTON

CITY           SKY/WX    TMP DP  RH WIND       PRES   REMARKS
PULLMAN        PTSUNNY   37  32  82 E8        30.40S
LEWISTON, ID   FOG       32  32 100 CALM      30.44S VSB 1/2
WALLA WALLA    CLOUDY    36  33  89 S3        30.46R FOG
PENDLETON, OR  CLOUDY    34  31  88 NW3       30.44R
$$



USA.gov is the U.S. government's official web portal to all federal, state and local government web resources and services.